AEE5XQ LGTS-LGAV

Flight info

Callsign AEE5XQ
Flight time 0h 32m
Altitude 27000
Route LEKPO UL617 SKP UM749 ROPOX
Aircraft A320/M-SDE3FGHIRWY/LB1

Departure

Time 2026-05-06 15:17
Airport Thessaloniki Macedonia International Airport (LGTS)

Arrival

Time 2026-05-06 15:49
Airport Athens Eleftherios Venizelos International Airport (LGAV)
Time Latitude Longitude Altitude Speed Heading
2026-05-06 14:51 40.52143 22.97843 29 ft 0 kts 45°
2026-05-06 15:10 40.52142 22.97840 29 ft 2 kts 45°
2026-05-06 15:10 40.52123 22.97816 29 ft 4 kts 45°
2026-05-06 15:10 40.52107 22.97794 29 ft 2 kts 45°
2026-05-06 15:11 40.52088 22.97772 29 ft 4 kts 32°
2026-05-06 15:11 40.52068 22.97763 29 ft 4 kts 329°
2026-05-06 15:11 40.52050 22.97783 29 ft 2 kts 315°
2026-05-06 15:11 40.52049 22.97785 29 ft 0 kts 315°
2026-05-06 15:13 40.52049 22.97784 29 ft 1 kts 315°
2026-05-06 15:13 40.52074 22.97752 29 ft 12 kts 315°
2026-05-06 15:14 40.52146 22.97643 29 ft 18 kts 296°
2026-05-06 15:14 40.52219 22.97496 29 ft 21 kts 315°
2026-05-06 15:14 40.52331 22.97348 29 ft 23 kts 314°
2026-05-06 15:14 40.52384 22.97223 29 ft 17 kts 261°
2026-05-06 15:15 40.52458 22.97125 29 ft 19 kts 349°
2026-05-06 15:15 40.52602 22.97080 29 ft 24 kts 346°
2026-05-06 15:15 40.52779 22.97023 29 ft 29 kts 346°
2026-05-06 15:15 40.52974 22.96962 29 ft 23 kts 346°
2026-05-06 15:16 40.53072 22.96906 29 ft 12 kts 290°
2026-05-06 15:16 40.53034 22.96798 28 ft 14 kts 233°
2026-05-06 15:16 40.53000 22.96771 28 ft 0 kts 165°
2026-05-06 15:16 40.52985 22.96776 28 ft 15 kts 165°
2026-05-06 15:17 40.52589 22.96902 30 ft 102 kts 167°
2026-05-06 15:17 40.51678 22.97187 94 ft 159 kts 167°
2026-05-06 15:17 40.50619 22.97507 985 ft 154 kts 167°
2026-05-06 15:17 40.49569 22.97800 1942 ft 155 kts 167°
2026-05-06 15:18 40.48440 22.98107 2483 ft 177 kts 168°
2026-05-06 15:18 40.47152 22.98467 3052 ft 202 kts 168°
2026-05-06 15:18 40.45694 22.98871 3717 ft 229 kts 169°
2026-05-06 15:18 40.44059 22.99321 4507 ft 252 kts 169°
2026-05-06 15:19 40.42311 22.99802 5582 ft 263 kts 169°
2026-05-06 15:19 40.40483 23.00306 6710 ft 273 kts 170°
2026-05-06 15:19 40.38597 23.00828 7815 ft 281 kts 171°
2026-05-06 15:19 40.36664 23.01367 8937 ft 288 kts 171°
2026-05-06 15:20 40.34706 23.02037 10060 ft 295 kts 163°
2026-05-06 15:20 40.32729 23.03050 10743 ft 318 kts 158°
2026-05-06 15:20 40.30646 23.04317 11217 ft 343 kts 155°
2026-05-06 15:20 40.28444 23.05737 11818 ft 360 kts 155°
2026-05-06 15:21 40.26172 23.07209 12652 ft 368 kts 155°
2026-05-06 15:21 40.23842 23.08685 13591 ft 374 kts 155°
2026-05-06 15:21 40.21463 23.10148 14422 ft 380 kts 156°
2026-05-06 15:21 40.19034 23.11608 15208 ft 387 kts 156°
2026-05-06 15:22 40.16563 23.13077 15950 ft 393 kts 156°
2026-05-06 15:22 40.14102 23.14528 16702 ft 399 kts 156°
2026-05-06 15:22 40.11552 23.16031 17483 ft 404 kts 157°
2026-05-06 15:22 40.08946 23.17478 18272 ft 409 kts 159°
2026-05-06 15:23 40.06281 23.18834 18961 ft 414 kts 161°
2026-05-06 15:23 40.03559 23.20148 19655 ft 420 kts 161°
2026-05-06 15:23 40.00790 23.21455 20348 ft 425 kts 162°
2026-05-06 15:23 39.97991 23.22777 21023 ft 431 kts 161°
2026-05-06 15:24 39.95156 23.24134 21661 ft 437 kts 161°
2026-05-06 15:24 39.92281 23.25530 22283 ft 442 kts 161°
2026-05-06 15:24 39.89386 23.26947 22888 ft 448 kts 161°
2026-05-06 15:24 39.86451 23.28391 23502 ft 453 kts 161°
2026-05-06 15:25 39.83480 23.29854 24036 ft 458 kts 161°
2026-05-06 15:25 39.80491 23.31327 24583 ft 461 kts 161°
2026-05-06 15:25 39.77472 23.32812 25123 ft 464 kts 161°
2026-05-06 15:25 39.74485 23.34277 25648 ft 467 kts 161°
2026-05-06 15:26 39.71391 23.35787 26189 ft 470 kts 162°
2026-05-06 15:26 39.68355 23.37263 26729 ft 473 kts 162°
2026-05-06 15:26 39.65227 23.38784 26997 ft 474 kts 162°
2026-05-06 15:26 39.62173 23.40271 27049 ft 476 kts 162°
2026-05-06 15:27 39.59064 23.41781 27053 ft 477 kts 162°
2026-05-06 15:27 39.55954 23.43286 27065 ft 477 kts 162°
2026-05-06 15:27 39.52843 23.44790 27048 ft 478 kts 162°
2026-05-06 15:27 39.49721 23.46298 27058 ft 479 kts 162°
2026-05-06 15:28 39.46603 23.47805 27054 ft 479 kts 162°
2026-05-06 15:28 39.43478 23.49318 27054 ft 479 kts 161°
2026-05-06 15:28 39.40350 23.50834 27054 ft 479 kts 161°
2026-05-06 15:28 39.37224 23.52351 27056 ft 479 kts 161°
2026-05-06 15:29 39.34103 23.53863 27057 ft 480 kts 161°
2026-05-06 15:29 39.30972 23.55379 27051 ft 480 kts 161°
2026-05-06 15:29 39.27849 23.56889 27053 ft 479 kts 161°
2026-05-06 15:29 39.24724 23.58396 27054 ft 479 kts 162°
2026-05-06 15:30 39.21640 23.59882 27054 ft 479 kts 162°
2026-05-06 15:30 39.18486 23.61246 27052 ft 477 kts 168°
2026-05-06 15:30 39.15242 23.62029 27051 ft 473 kts 176°
2026-05-06 15:30 39.11931 23.62498 27050 ft 473 kts 177°
2026-05-06 15:31 39.08660 23.62967 27038 ft 473 kts 176°
2026-05-06 15:31 39.05439 23.63440 27041 ft 473 kts 176°
2026-05-06 15:31 39.02163 23.63931 27044 ft 473 kts 176°
2026-05-06 15:32 38.95638 23.64909 27049 ft 472 kts 176°
2026-05-06 15:32 38.92364 23.65398 27049 ft 472 kts 176°
2026-05-06 15:32 38.89106 23.65881 27048 ft 472 kts 176°
2026-05-06 15:32 38.85844 23.66362 27035 ft 472 kts 176°
2026-05-06 15:33 38.82579 23.66843 27036 ft 472 kts 176°
2026-05-06 15:33 38.79311 23.67322 27038 ft 471 kts 176°
2026-05-06 15:33 38.76050 23.67797 27038 ft 471 kts 176°
2026-05-06 15:33 38.72795 23.68272 27041 ft 472 kts 176°
2026-05-06 15:34 38.69538 23.68749 27040 ft 471 kts 176°
2026-05-06 15:34 38.66280 23.69227 27041 ft 471 kts 176°
2026-05-06 15:34 38.63020 23.69705 27033 ft 471 kts 176°
2026-05-06 15:34 38.59763 23.70182 27041 ft 471 kts 176°
2026-05-06 15:35 38.56545 23.70652 27042 ft 471 kts 176°
2026-05-06 15:35 38.53299 23.71122 26944 ft 467 kts 176°
2026-05-06 15:35 38.50124 23.71581 26240 ft 462 kts 176°
2026-05-06 15:35 38.46953 23.72033 25482 ft 458 kts 176°
2026-05-06 15:36 38.43793 23.72477 24753 ft 454 kts 176°
2026-05-06 15:36 38.40661 23.72911 24032 ft 449 kts 176°
2026-05-06 15:36 38.37594 23.73328 22778 ft 439 kts 176°
2026-05-06 15:36 38.34582 23.73732 21479 ft 431 kts 176°
2026-05-06 15:37 38.31622 23.74129 20301 ft 423 kts 176°
2026-05-06 15:37 38.28726 23.74518 19178 ft 414 kts 176°
2026-05-06 15:37 38.25895 23.74896 18058 ft 406 kts 176°
2026-05-06 15:37 38.23173 23.75695 16837 ft 399 kts 158°
2026-05-06 15:38 38.20835 23.77520 15680 ft 391 kts 137°
2026-05-06 15:38 38.19172 23.80115 14585 ft 380 kts 117°
2026-05-06 15:38 38.18209 23.83179 13431 ft 370 kts 106°
2026-05-06 15:38 38.17445 23.86264 12210 ft 363 kts 105°
2026-05-06 15:39 38.16723 23.89299 11072 ft 356 kts 105°
2026-05-06 15:39 38.16028 23.92288 10441 ft 351 kts 105°
2026-05-06 15:39 38.15365 23.95158 10156 ft 323 kts 105°
2026-05-06 15:39 38.14760 23.97796 9850 ft 301 kts 105°
2026-05-06 15:40 38.14188 24.00314 9231 ft 293 kts 105°
2026-05-06 15:40 38.13627 24.02792 8510 ft 291 kts 105°
2026-05-06 15:40 38.13074 24.05251 7795 ft 289 kts 105°
2026-05-06 15:40 38.12530 24.07686 7161 ft 285 kts 105°
2026-05-06 15:41 38.11988 24.10089 6527 ft 280 kts 105°
2026-05-06 15:41 38.11454 24.12462 5831 ft 278 kts 105°
2026-05-06 15:41 38.10939 24.14769 5577 ft 261 kts 105°
2026-05-06 15:41 38.10464 24.16896 5440 ft 240 kts 105°
2026-05-06 15:42 38.10021 24.18886 5078 ft 231 kts 105°
2026-05-06 15:42 38.09779 24.20877 4668 ft 229 kts 83°
2026-05-06 15:42 38.10372 24.22699 4426 ft 224 kts 47°
2026-05-06 15:42 38.11621 24.23772 4138 ft 220 kts 13°
2026-05-06 15:43 38.13103 24.23733 4005 ft 216 kts 338°
2026-05-06 15:43 38.14279 24.22603 3994 ft 215 kts 303°
2026-05-06 15:43 38.14718 24.20822 3995 ft 215 kts 268°
2026-05-06 15:43 38.14493 24.18946 3995 ft 216 kts 257°
2026-05-06 15:44 38.14135 24.17092 3995 ft 216 kts 256°
2026-05-06 15:44 38.13682 24.15281 3994 ft 215 kts 243°
2026-05-06 15:44 38.12753 24.13806 3995 ft 216 kts 220°
2026-05-06 15:44 38.11551 24.12655 3996 ft 217 kts 218°
2026-05-06 15:45 38.10351 24.11505 3914 ft 215 kts 218°
2026-05-06 15:45 38.09158 24.10362 3692 ft 214 kts 217°
2026-05-06 15:45 38.07969 24.09224 3427 ft 213 kts 217°
2026-05-06 15:45 38.06787 24.08093 3158 ft 211 kts 217°
2026-05-06 15:46 38.05620 24.06977 2874 ft 208 kts 217°
2026-05-06 15:46 38.04479 24.05886 2612 ft 200 kts 216°
2026-05-06 15:46 38.03423 24.04877 2375 ft 186 kts 216°
2026-05-06 15:46 38.02443 24.03940 2133 ft 165 kts 215°
2026-05-06 15:47 38.01581 24.03116 1938 ft 148 kts 215°
2026-05-06 15:47 38.00785 24.02357 1735 ft 140 kts 214°
2026-05-06 15:47 38.00016 24.01624 1556 ft 139 kts 215°
2026-05-06 15:47 37.99248 24.00892 1362 ft 137 kts 216°
2026-05-06 15:48 37.98483 24.00163 1189 ft 138 kts 216°
2026-05-06 15:48 37.97726 23.99440 1009 ft 134 kts 216°
2026-05-06 15:48 37.96984 23.98730 807 ft 134 kts 214°
2026-05-06 15:48 37.96241 23.98027 635 ft 134 kts 218°
2026-05-06 15:49 37.95502 23.97323 467 ft 133 kts 218°
2026-05-06 15:49 37.94773 23.96626 311 ft 126 kts 217°
2026-05-06 15:49 37.94343 23.96218 293 ft 109 kts 217°
2026-05-06 15:49 37.93754 23.95656 283 ft 49 kts 217°
2026-05-06 15:50 37.93542 23.95431 283 ft 32 kts 236°
2026-05-06 15:50 37.93456 23.95215 295 ft 15 kts 259°
2026-05-06 15:50 37.93497 23.95158 298 ft 0 kts 347°
2026-05-06 15:50 37.93505 23.95158 299 ft 5 kts
2026-05-06 15:51 37.93591 23.95225 299 ft 19 kts 37°
2026-05-06 15:51 37.93708 23.95338 301 ft 24 kts 37°
2026-05-06 15:51 37.93828 23.95424 299 ft 15 kts 350°
2026-05-06 15:51 37.93909 23.95322 300 ft 17 kts 306°
2026-05-06 15:52 37.93953 23.95287 300 ft 8 kts 20°
2026-05-06 15:52 37.93982 23.95317 303 ft 7 kts 36°
2026-05-06 15:52 37.94002 23.95336 302 ft 2 kts 37°
2026-05-06 15:52 37.94004 23.95338 302 ft 0 kts 37°